Overview Statistics Trail Chart Weather Telemetry Raw packets
 

This is the latest recevied weather packets stored in our database for station/object EA1HTW-13. If no packets are shown the sender has not sent any weather packets the latest 10 day(s).

<< 46 47 48 49 50 51 52 >>
Time Temp. Humidity Pressure Rain* Wind** Luminosity Snow
1777375041 26.11° C 43% 1002.4 hPa 0 mm - - -
1777374502 26.67° C 42% 1002.7 hPa 0 mm - - -
1777373963 26.11° C 42% 1002.6 hPa 0 mm - - -
1777373422 26.11° C 42% 1002.7 hPa 0 mm - - -
1777372882 25.56° C 44% 1002.8 hPa 0 mm - - -
1777372342 25.56° C 44% 1002.9 hPa 0 mm - - -
1777371802 25.56° C 46% 1002.9 hPa 0 mm - - -
1777371263 25° C 48% 1003 hPa 0 mm - - -
1777370722 24.44° C 48% 1003.1 hPa 0 mm - - -
1777370183 23.89° C 50% 1003 hPa 0 mm - - -
1777369643 23.89° C 49% 1003.1 hPa 0 mm - - -
1777369102 23.89° C 50% 1003.1 hPa 0 mm - - -
1777368562 23.33° C 50% 1003.3 hPa 0 mm - - -
1777368023 23.33° C 50% 1002.9 hPa 0 mm - - -
1777367482 22.78° C 51% 1003.1 hPa 0 mm - - -
1777366942 22.22° C 53% 1002.9 hPa 0 mm - - -
1777366402 22.22° C 54% 1003.1 hPa 0 mm - - -
1777365861 21.67° C 56% 1003.4 hPa 0 mm - - -
1777365323 21.11° C 58% 1003.3 hPa 0 mm - - -
1777364783 20.56° C 60% 1003.2 hPa 0 mm - - -
1777364242 20.56° C 61% 1003.4 hPa 0 mm - - -
1777363702 20° C 61% 1003.2 hPa 0 mm - - -
1777363163 19.44° C 61% 1003.3 hPa 0 mm - - -
1777362621 19.44° C 62% 1003.5 hPa 0 mm - - -
1777362082 18.89° C 64% 1003.4 hPa 0 mm - - -

* Rain latest hour (hover to see other rain measurements)
** Current wind speed in m/s (hover to see current wind gust speed)